San Diego, CA

7:20 AM PST on December 10, 2016 (GMT -0800)
North Island Naval Air Station

Weather History for KNZY - November, 2012

Change the Weather History Date:

Sunday, November 11, 2012

  Actual Average Record
Temperature  
Mean Temperature 57 °F -  
Max Temperature 66 °F 66 °F 84 °F (2016)
Min Temperature 48 °F 52 °F 46 °F (1999)
Degree Days  
Heating Degree Days 8    
Growing Degree Days 7 (Base 50)    
Moisture  
Dew Point 40 °F    
Average Humidity 54    
Maximum Humidity 71    
Minimum Humidity 30    
Precipitation  
Precipitation 0.00 in - - ()
Sea Level Pressure  
Sea Level Pressure 30.22 in    
Wind  
Wind Speed 5 mph (North)    
Max Wind Speed 15 mph    
Max Gust Speed -    
Visibility 10 miles    
Events      
Averages and records for this station are not official NWS values.
T = Trace of Precipitation, MM = Missing Value Source: NWS Daily Summary

Daily Weather History Graph

Daily Weather History Graph

Search for Another Location

Airport or City:

Trip Planner

Search our weather history database for the weather conditions in past years. The results will help you decide how hot, cold, wet, or windy it might be!

Date:

Astronomy

Nov. 11, 2012 Rise Set
Actual Time 6:15 AM PST 4:49 PM PST
Civil Twilight 5:49 AM PST 5:15 PM PST
Nautical Twilight 5:20 AM PST 5:45 PM PST
Astronomical Twilight 4:51 AM PST 6:14 PM PST
Moon 3:41 AM PST (11/11) 3:11 PM PST (11/11)
Length of Visible Light 11h 25m
Length of Day
10h 34m
Waning Crescent, 6% of the Moon is Illuminated
Nov 11
Waning Crescent
Nov 13
New
Nov 20
First Quarter
Nov 28
Full
Dec 6
Last Quarter

Hourly Weather History & Observations

Time (PST) Temp. Dew Point Humidity Pressure Visibility Wind Dir Wind Speed Gust Speed Precip Events Conditions
12:52 AM 52.0 °F 43.0 °F 71% 30.16 in 10.0 mi Calm Calm - N/A   Partly Cloudy
1:52 AM 53.1 °F 43.0 °F 69% 30.17 in 10.0 mi East 4.6 mph - N/A   Clear
2:52 AM 51.1 °F 42.1 °F 71% 30.17 in 10.0 mi ENE 4.6 mph - N/A   Clear
3:52 AM 50.0 °F 41.0 °F 71% 30.18 in 10.0 mi East 3.5 mph - N/A   Clear
4:52 AM 50.0 °F 39.9 °F 68% 30.19 in 10.0 mi Calm Calm - N/A   Clear
5:52 AM 48.9 °F 39.0 °F 69% 30.21 in 10.0 mi ESE 6.9 mph - N/A   Clear
6:52 AM 48.9 °F 39.9 °F 71% 30.23 in 10.0 mi Calm Calm - N/A   Partly Cloudy
7:52 AM 54.0 °F 39.9 °F 59% 30.25 in 10.0 mi East 5.8 mph - N/A   Partly Cloudy
8:52 AM 59.0 °F 41.0 °F 51% 30.27 in 10.0 mi ESE 4.6 mph - N/A   Partly Cloudy
9:52 AM 62.1 °F 39.0 °F 43% 30.28 in 10.0 mi SSE 4.6 mph - N/A   Clear
10:52 AM 64.9 °F 37.0 °F 36% 30.26 in 10.0 mi NNW 6.9 mph - N/A   Clear
11:52 AM 66.0 °F 34.0 °F 30% 30.24 in 10.0 mi WNW 9.2 mph - N/A   Clear
12:52 PM 66.0 °F 37.0 °F 34% 30.21 in 10.0 mi WNW 12.7 mph - N/A   Clear
1:52 PM 66.0 °F 39.0 °F 37% 30.19 in 10.0 mi NW 15.0 mph - N/A   Clear
2:52 PM 64.9 °F 42.1 °F 43% 30.20 in 10.0 mi NW 15.0 mph - N/A   Clear
3:52 PM 64.0 °F 41.0 °F 43% 30.21 in 10.0 mi NW 12.7 mph - N/A   Clear
4:52 PM 62.1 °F 39.9 °F 44% 30.22 in 10.0 mi NNW 11.5 mph - N/A   Clear
5:52 PM 62.1 °F 41.0 °F 46% 30.24 in 10.0 mi NNW 9.2 mph - N/A   Clear
6:52 PM 60.1 °F 42.1 °F 51% 30.26 in 10.0 mi North 8.1 mph - N/A   Clear
7:52 PM 59.0 °F 43.0 °F 55% 30.27 in 10.0 mi NNE 5.8 mph - N/A   Clear
8:52 PM 59.0 °F 42.1 °F 53% 30.28 in 10.0 mi North 4.6 mph - N/A   Clear
9:52 PM 57.9 °F 41.0 °F 53% 30.25 in 10.0 mi North 3.5 mph - N/A   Clear
10:52 PM 54.0 °F 39.9 °F 59% 30.24 in 10.0 mi Calm Calm - N/A   Clear
11:52 PM 50.0 °F 39.0 °F 66% 30.22 in 9.0 mi Calm Calm - N/A   Clear